Location: Newark
(47.3150°N, 5.1150°E)
Time: 10:20:27
(UTC+00:00)

UKube-1 - Visible Passes

Search period start: 10 December 2019 00:00
Search period end: 20 December 2019 00:00
Orbit: 612 x 620 km, 98.4° (Epoch: 10 December)

Date Brightness Start Highest point End Pass type
(mag) Time Alt. Az. Time Alt. Az. Time Alt. Az.
10 Dec ? 16:18:31 10° NE 16:21:46 20° E 16:25:00 10° SE visible
10 Dec ? 17:53:50 10° N 17:57:57 44° WNW 18:02:03 10° SW visible
11 Dec ? 16:34:12 10° NE 16:37:58 29° E 16:41:43 10° SSE visible
11 Dec ? 18:10:06 10° N 18:13:55 31° WNW 18:17:45 10° SW visible
12 Dec ? 16:50:01 10° NNE 16:54:07 41° E 16:58:12 10° S visible
12 Dec ? 18:26:28 10° NNW 18:29:52 23° WNW 18:33:16 10° WSW visible
13 Dec ? 17:05:57 10° NNE 17:10:15 60° ESE 17:14:30 10° S visible
13 Dec ? 18:42:59 10° NNW 18:45:47 17° WNW 18:48:34 10° W visible
14 Dec ? 17:21:58 10° NNE 17:26:20 86° ESE 17:30:39 10° SSW visible
14 Dec ? 18:59:49 10° NNW 19:01:39 13° WNW 19:03:30 10° W visible
15 Dec ? 17:38:05 10° N 17:42:23 66° WNW 17:46:39 10° SSW visible
16 Dec ? 17:54:15 10° N 17:58:24 45° WNW 18:02:31 10° SW visible
17 Dec ? 16:34:39 10° NE 16:38:24 28° E 16:42:07 10° SSE visible
17 Dec ? 18:10:31 10° N 18:14:22 32° WNW 18:18:14 10° SW visible
18 Dec ? 16:50:28 10° NNE 16:54:33 40° E 16:58:37 10° S visible
18 Dec ? 18:26:52 10° N 18:30:19 24° WNW 18:33:46 10° WSW visible
19 Dec ? 17:06:23 10° NNE 17:10:40 58° ESE 17:14:56 10° S visible
19 Dec ? 18:43:22 10° NNW 18:46:14 18° WNW 18:49:06 10° WSW visible
